Temp
6 7 8 9 9 8 7 8 8 7 8 8 9 9 10 10 11 10 10 10 10 10 9 9 8 7 7 6 6 6 6 7 7 1 3 2 3 4 4 4 4 4 4
4 5 7 8 7 8 7 7 5 5 5 6 6 7 8 9 10 10 10 10 10 10 9 9 8 6 6 6 6 6 6 6 7 1 2 2 2 3 3 3 3 2 2
4 5 7 7 7 5 4 3 3 4 5 4 4 5 6 6 7 9 10 10 10 10 10 9 8 7 6 6 5 5 5 5 5 2 0 1 1 2 1 1 1 1 1
3 6 5 5 5 5 4 3 3 3 2 3 2 3 3 4 5 6 7 9 9 9 10 10 8 7 6 6 5 5 5 4 3 2 0 0 0 1 0 0 -0 -1 -1
4 4 4 3 3 2 3 2 2 2 3 3 4 4 4 5 6 6 5 6 7 9 9 9 8 7 7 6 5 5 4 3 2 1 1 -0 -0 -0 -0 -1 -1 -1 -2
3 3 3 3 3 3 3 3 2 2 2 2 2 3 4 4 3 3 3 4 4 5 8 8 8 8 7 6 6 5 4 3 2 1 1 1 -0 -0 -0 -1 -2 -2 -2
2 3 3 3 3 3 3 2 1 1 -0 -0 0 1 2 2 2 1 1 2 3 4 5 8 8 7 7 5 5 5 3 4 5 3 1 1 -0 -0 -1 -1 -1 -1 -2
1 2 2 2 2 2 2 1 1 0 -0 -1 -1 -0 -0 0 0 -0 1 1 3 3 5 6 8 7 6 5 4 4 3 2 4 3 3 1 1 -0 -1 -1 -1 -1 -3
1 2 2 2 2 2 1 1 1 1 -0 -0 -0 -0 0 0 -0 -0 0 0 2 3 4 5 7 7 7 5 4 3 2 2 2 3 2 1 0 -1 -1 -2 -2 -3 -3
1 1 0 1 1 1 1 1 1 1 0 0 -0 -0 -0 -0 -0 -0 0 0 1 2 3 5 7 7 6 5 4 3 2 1 1 1 0 -0 -1 -2 -1 -2 -2 -2 -3
0 -0 -1 -1 -0 0 0 0 0 0 0 -0 -1 -1 -1 -0 -1 -0 -0 0 1 2 3 4 6 7 6 6 4 3 3 1 0 -0 -0 -1 -2 -2 -2 -2 -2 -2 -3
0 0 -0 -0 -0 1 1 1 0 0 -0 0 -0 -0 0 0 -0 -1 -1 -0 0 1 2 3 5 6 6 6 4 4 2 1 -0 -1 -2 -2 -2 -3 -3 -3 -3 -3 -2
-0 0 0 -0 -0 -0 -1 -0 -0 -0 -0 0 1 1 1 1 1 -0 -1 -1 -0 0 1 3 5 6 6 6 4 3 2 -1 -1 -1 -1 -2 -2 -3 -3 -3 -3 -4 -3
0 -0 -0 -0 -1 -1 -1 -1 0 -0 -0 -0 0 1 0 0 0 -0 -1 -1 -1 -0 0 2 3 3 4 3 1 1 -1 -1 -1 -1 -2 -2 -3 -3 -3 -3 -4 -4 -4
-0 -0 -0 -1 -1 -1 -1 0 -0 -1 -1 -1 -1 -1 -1 -1 -1 -2 -2 -2 -2 -1 -0 0 -0 -0 -1 -1 -1 -1 -1 -2 -1 -2 -2 -3 -3 -3 -3 -4 -4 -4 -4
-0 -1 -1 -1 -1 -1 -1 -1 -1 -1 -1 -1 -2 -2 -2 -2 -2 -2 -3 -2 -2 -2 -1 -1 -1 -1 -1 -1 -1 -2 -2 -2 -2 -2 -3 -3 -3 -3 -4 -4 -4 -4 -5
-1 -1 -1 -1 -1 -1 -1 -1 -1 -1 -1 -0 -1 -1 -2 -2 -2 -2 -3 -3 -3 -2 -2 -1 -1 -1 -1 -1 -1 -2 -2 -2 -3 -3 -3 -3 -3 -3 -3 -4 -3 -3 -4
-1 -1 -1 -2 -2 -2 -2 -2 -2 -2 -1 -0 -0 -1 -2 -2 -2 -2 -3 -3 -2 -2 -2 -2 -2 -2 -2 -2 -2 -2 -3 -3 -3 -3 -3 -3 -3 -3 -3 -3 -3 -3 -4
-1 -1 -1 -1 -2 -2 -2 -2 -2 -2 -1 0 -0 -1 -2 -2 -3 -3 -4 -2 -2 -2 -3 -2 -2 -3 -3 -3 -4 -4 -4 -3 -3 -3 -3 -3 -3 -3 -3 -3 -3 -3 -3
-1 -2 -3 -1 -1 -2 -2 -2 -1 -1 -1 -1 -0 -0 -1 -3 -2 -3 -3 -3 -3 -3 -3 -3 -3 -3 -4 -4 -4 -4 -4 -4 -4 -3 -3 -3 -3 -3 -3 -3 -3 -3 -3
-2 -2 -3 -2 -1 -2 -2 -2 -2 -1 -1 -1 -0 -1 -2 -2 -2 -2 -2 -3 -3 -3 -4 -4 -4 -4 -4 -4 -4 -4 -4 -4 -4 -4 -4 -4 -4 -4 -3 -3 -4 -3 -3
-3 -2 -2 -2 -2 -2 -3 -3 -2 -2 -1 -1 -0 -1 -2 -3 -2 -2 -3 -3 -3 -3 -3 -4 -4 -4 -4 -4 -4 -4 -4 -4 -4 -4 -4 -4 -4 -4 -4 -4 -4 -3 -3
-3 -3 -3 -2 -3 -3 -3 -3 -2 -2 -2 -1 -1 -1 -2 -2 -2 -2 -3 -3 -3 -4 -4 -4 -4 -5 -5 -5 -5 -4 -4 -4 -4 -4 -4 -4 -4 -4 -4 -4 -3 -3 -3
-4 -4 -4 -3 -3 -3 -3 -3 -3 -3 -2 -2 -1 -1 -2 -2 -2 -2 -3 -3 -4 -4 -4 -4 -4 -4 -5 -4 -5 -4 -4 -4 -4 -4 -4 -4 -4 -4 -4 -4 -4 -4 -4
-5 -5 -5 -4 -4 -4 -4 -3 -4 -3 -3 -2 -2 -2 -2 -2 -2 -2 -3 -3 -4 -4 -4 -4 -4 -4 -4 -4 -4 -4 -4 -4 -4 -4 -4 -4 -4 -4 -4 -4 -4 -5 -5
-6 -6 -6 -5 -5 -5 -4 -4 -4 -4 -4 -3 -3 -2 -2 -2 -2 -2 -3 -3 -4 -4 -4 -4 -4 -4 -4 -4 -4 -4 -4 -5 -5 -5 -5 -5 -5 -5 -5 -4 -5 -5 -5
Height
742 736 729 725 723 722 721 720 717 716 714 713 708 706 706 704 703 707 708 710 711 716 715 719 726 731 736 743 749 754 762 769 780 800 805 813 818 823 834 841 846 854 859
737 730 723 723 721 720 720 714 715 714 713 707 704 705 701 700 699 701 702 704 706 710 709 715 720 725 731 735 741 747 753 760 766 783 800 809 813 820 827 837 844 850 857
729 722 718 722 721 718 716 714 711 710 708 706 704 703 697 696 694 695 696 698 700 704 706 709 710 718 720 731 736 741 747 754 759 771 790 802 811 816 822 832 841 848 855
722 719 719 721 719 717 714 712 711 710 708 705 702 699 696 692 693 693 692 695 694 696 697 699 704 708 713 719 726 733 741 748 759 762 778 792 802 812 816 821 836 844 849
719 718 719 722 719 716 713 712 711 708 708 702 702 700 694 691 691 690 690 688 686 686 690 692 693 695 701 709 717 726 734 741 749 759 768 784 795 800 804 815 826 837 847
720 719 718 721 718 716 714 711 709 706 703 703 701 695 691 684 686 687 687 685 682 681 680 683 683 687 693 700 706 713 717 730 740 748 759 766 782 790 796 802 814 825 841
726 722 723 722 718 716 713 710 707 704 701 696 690 685 681 680 679 678 678 677 676 676 676 672 675 679 682 689 696 703 710 713 718 729 745 749 766 774 784 799 806 811 823
729 726 723 720 717 714 711 707 703 699 694 691 688 685 681 678 676 674 673 672 670 669 668 668 664 673 673 682 690 697 706 711 715 724 722 733 746 762 772 782 799 811 822
733 727 722 719 716 712 707 704 700 696 692 689 685 682 679 676 673 671 668 665 663 661 662 661 657 660 664 672 682 690 701 708 716 724 724 729 738 748 768 783 800 810 820
730 726 722 718 714 709 705 702 698 694 690 686 682 680 677 673 669 666 663 659 656 654 654 652 653 654 661 666 673 684 692 700 709 722 731 741 750 756 758 766 776 793 811
730 726 722 717 713 708 703 699 694 690 687 683 679 677 673 670 665 662 658 653 649 646 645 646 646 648 651 659 666 673 679 692 703 714 724 737 747 756 765 772 780 785 798
731 726 721 716 711 706 701 696 692 688 684 680 677 673 671 667 663 658 654 649 644 640 638 638 640 644 648 653 661 664 675 683 697 709 720 731 742 751 760 768 781 790 802
729 724 719 714 710 706 701 696 692 686 682 677 673 670 666 663 659 656 651 646 641 637 635 634 635 639 643 649 654 662 671 682 692 704 714 724 735 745 755 766 780 791 800
727 723 718 713 709 705 701 695 690 685 680 676 672 668 664 660 657 654 650 646 642 637 634 631 633 637 641 646 655 661 670 677 684 697 708 721 735 743 751 759 771 786 799
726 723 718 713 708 703 699 693 688 683 679 675 671 668 664 659 657 654 650 645 642 638 635 633 635 638 643 648 655 662 671 678 687 697 706 717 728 736 749 758 769 782 795
725 722 717 712 707 702 697 690 686 680 676 672 669 666 662 658 655 652 649 646 643 641 638 637 638 640 643 647 654 662 670 676 685 693 702 710 721 731 743 757 770 779 791
724 720 715 711 706 700 695 689 682 675 672 669 665 662 660 657 653 651 649 647 645 643 643 642 641 642 646 649 654 660 669 677 684 692 699 707 716 728 736 752 763 776 787
722 717 713 709 705 699 694 688 683 677 671 667 663 660 657 655 653 651 651 650 648 647 647 647 647 647 649 652 656 661 669 677 685 692 700 707 714 722 735 748 757 769 780
718 714 710 706 702 698 692 686 681 676 671 666 662 659 656 655 653 652 652 651 650 649 649 650 651 652 655 659 662 666 671 679 685 692 698 705 712 721 735 745 757 768 775
714 711 708 703 699 695 690 685 679 675 670 665 662 659 656 655 654 653 652 652 651 650 651 651 653 655 657 661 664 668 674 680 687 692 698 705 713 723 733 744 754 763 774
712 708 705 700 696 693 688 684 678 674 669 664 660 657 656 654 653 652 652 651 651 651 651 652 653 655 658 662 665 670 675 681 687 692 699 706 714 723 735 743 754 764 773
710 706 702 698 694 690 686 682 677 672 667 662 658 655 653 653 652 651 651 651 651 651 651 652 653 655 658 661 665 670 675 680 686 693 700 707 716 725 735 743 754 763 772
707 703 699 695 692 688 684 681 676 670 665 660 656 653 652 650 649 649 649 649 650 651 652 653 654 656 658 662 666 669 673 678 684 691 699 708 717 725 734 743 752 760 769
704 701 697 693 689 686 682 678 674 669 664 658 653 650 649 647 646 646 646 647 649 649 651 652 654 656 658 662 666 671 675 679 686 693 699 707 716 725 733 742 750 758 765
702 698 694 690 686 682 679 676 672 667 662 657 651 647 645 644 643 643 643 644 646 648 649 651 653 656 659 662 667 671 676 681 687 694 701 709 715 723 731 739 747 756 763
697 694 691 687 683 679 676 672 669 664 659 655 649 645 642 640 640 639 640 641 642 644 647 650 652 655 658 663 667 671 676 681 687 694 700 707 714 722 730 737 745 753 760
Wind_Speed
31 26 23 13 10 8 9 9 9 11 12 14 14 14 18 21 22 25 31 30 31 31 31 33 33 34 34 33 33 40 36 35 19 10 24 34 30 33 34 34 37 33 33
31 31 22 6 5 6 7 7 9 10 12 12 13 15 14 15 20 26 28 31 33 30 28 28 33 33 34 38 39 37 36 37 33 24 27 37 35 40 33 37 35 33 31
31 27 1 4 4 5 7 9 9 12 12 13 13 14 13 13 14 15 25 28 29 34 32 34 35 39 38 33 34 36 36 35 37 34 25 35 35 40 40 36 32 32 30
32 3 4 5 7 8 9 9 11 11 12 12 14 16 17 16 16 17 19 24 31 30 34 32 37 41 41 40 39 38 34 32 32 39 39 38 37 37 41 40 33 32 33
15 7 7 4 5 9 11 10 11 11 12 12 14 13 13 13 14 15 16 20 20 31 33 38 38 43 46 46 42 38 37 37 35 33 33 36 34 39 41 39 36 34 32
7 6 5 5 6 8 9 11 11 12 13 13 14 14 13 12 13 17 19 23 23 24 30 33 37 43 50 52 52 50 55 42 36 36 36 39 40 43 41 45 43 40 25
7 8 3 3 5 6 8 10 11 12 12 14 16 17 18 19 19 20 21 22 26 25 26 31 36 38 47 49 56 53 55 59 61 54 43 48 45 49 46 43 44 44 31
13 6 6 7 7 8 9 9 10 11 13 14 15 15 16 18 20 22 22 22 24 27 27 27 37 36 44 43 43 43 48 52 55 52 62 58 55 54 56 50 43 37 33
14 14 13 12 12 12 12 13 13 13 12 14 14 16 17 19 21 22 22 21 21 24 25 31 29 33 41 46 41 39 39 39 42 47 46 54 55 63 53 45 41 35 33
20 19 19 18 17 16 16 16 14 14 15 15 15 15 17 19 20 21 21 21 21 21 24 27 32 35 41 48 44 43 37 37 37 34 25 32 41 52 60 60 56 44 41
22 20 19 18 18 17 18 17 20 18 16 17 18 18 17 16 19 20 20 20 20 20 20 24 30 35 37 45 46 43 45 41 38 36 36 40 45 48 44 43 46 48 46
20 19 18 19 18 19 19 20 19 20 17 18 17 16 13 14 16 19 22 20 18 20 22 25 28 33 38 43 54 47 43 46 41 38 39 39 43 43 42 42 38 37 32
20 21 20 20 18 20 21 21 19 19 16 16 15 14 15 15 16 17 20 20 16 15 21 27 25 26 31 37 51 41 44 39 38 38 40 40 45 45 42 43 38 36 24
19 20 20 20 22 19 19 17 17 17 16 14 14 14 15 15 16 16 19 19 16 13 13 12 14 19 26 32 31 41 41 41 43 40 39 39 41 42 43 45 43 36 33
19 19 19 20 20 20 19 19 19 21 19 17 16 15 16 16 16 20 19 17 15 9 5 9 17 21 22 24 29 32 31 34 35 35 39 42 41 42 39 42 40 37 36
18 18 19 20 20 19 19 21 20 21 20 17 17 17 18 19 19 17 15 14 7 3 3 10 12 17 22 26 28 28 31 34 35 39 42 44 43 42 40 38 39 35 34
17 17 18 17 19 18 19 19 19 23 19 17 15 15 14 16 15 11 10 5 3 2 2 4 10 15 19 22 27 30 30 30 36 38 40 41 41 40 43 39 36 34 31
15 15 15 16 18 19 19 19 18 17 17 18 13 15 12 11 10 7 5 4 1 2 3 5 8 11 14 18 23 26 27 31 32 34 36 38 39 42 38 36 34 34 33
15 15 17 17 17 20 19 18 17 16 18 18 15 12 10 8 7 5 5 7 4 2 5 7 8 12 14 17 21 25 31 30 31 32 34 36 38 38 34 34 33 33 35
15 15 16 17 17 18 18 18 17 17 17 17 15 12 9 5 6 6 6 6 3 2 5 8 10 12 15 18 22 26 27 29 29 30 31 33 35 36 35 35 34 35 31
15 16 15 16 17 17 18 18 19 18 16 16 16 15 11 10 10 9 6 5 4 4 6 9 11 14 16 19 23 26 28 28 29 30 32 32 34 33 33 33 33 32 32
13 15 15 16 17 17 18 20 18 18 17 16 16 14 12 11 12 9 8 7 6 6 8 11 11 14 17 21 24 28 28 29 30 31 32 33 32 32 32 33 33 31 32
14 15 17 17 16 18 18 19 18 19 19 16 15 14 10 11 13 12 11 10 7 7 8 11 13 14 17 21 24 27 30 31 32 35 35 33 32 32 32 33 33 32 32
15 16 17 18 17 18 18 19 19 20 21 20 16 15 14 14 16 17 15 13 12 10 11 12 13 15 19 23 25 24 25 31 34 36 37 34 31 32 32 32 32 32 31
16 17 18 18 19 19 19 20 19 21 20 21 18 15 15 15 15 16 17 17 16 16 15 15 14 16 19 21 23 25 24 31 34 37 35 33 34 34 33 32 32 31 30
19 19 19 19 19 19 19 20 20 20 21 21 22 18 16 16 15 16 17 17 18 19 19 19 19 19 19 19 20 23 23 29 34 37 35 33 35 31 31 31 32 31 32
Wind_Direction
309 295 283 270 267 267 275 276 283 286 278 281 278 280 267 247 245 239 227 216 213 213 207 206 199 193 187 186 188 184 183 176 171 166 179 178 164 164 166 165 169 166 175
305 293 273 263 285 298 298 313 308 295 294 292 292 289 278 269 244 241 241 230 213 212 208 201 198 189 190 187 186 186 185 185 171 151 172 172 169 169 163 162 160 160 161
304 289 256 301 312 334 331 331 328 319 309 303 294 285 289 282 279 261 239 239 226 223 217 205 194 193 187 191 191 188 186 182 170 161 161 169 168 165 154 153 155 154 157
297 244 75 352 350 344 344 344 335 318 309 303 300 293 286 280 274 274 264 247 241 238 229 215 203 196 193 191 189 187 180 171 172 162 158 163 165 167 158 151 151 153 149
285 94 54 0 354 353 356 344 326 325 310 310 296 289 287 282 276 274 280 278 274 236 241 223 208 199 197 195 188 183 178 168 162 159 156 162 169 166 167 162 152 151 153
81 82 63 7 8 2 354 347 335 325 320 310 301 301 300 302 283 278 281 278 281 280 235 226 217 203 203 199 198 188 183 174 169 163 168 168 180 177 170 164 156 153 151
25 58 50 348 352 349 341 337 332 321 312 311 315 322 317 309 302 301 296 282 272 270 268 233 216 212 203 199 196 192 185 186 185 178 176 175 177 180 171 170 169 163 161
334 353 347 332 325 315 312 316 319 321 317 310 306 307 305 302 301 304 299 286 271 261 260 264 213 212 197 196 192 187 189 189 195 191 184 182 183 178 178 173 168 155 147
343 349 346 335 326 321 319 319 321 314 311 310 307 309 308 303 305 307 306 293 272 256 256 249 214 202 205 192 184 184 187 193 198 198 195 186 181 176 170 159 159 150 150
344 344 344 337 326 320 322 319 314 311 309 313 309 306 304 303 307 311 309 296 268 255 253 248 239 205 201 194 186 183 183 188 183 188 185 181 176 171 169 169 160 159 155
340 338 337 338 329 326 317 318 321 314 309 309 308 305 301 296 306 318 315 307 272 251 234 232 223 211 206 202 191 186 189 179 178 173 166 165 166 168 168 168 168 163 160
337 336 337 339 338 332 328 325 323 317 307 307 307 304 303 308 308 316 320 316 300 274 242 237 221 215 210 209 195 193 184 177 168 164 157 160 164 165 166 167 167 164 168
340 341 340 340 338 336 331 320 318 313 306 302 306 309 311 318 319 317 325 325 312 281 263 249 222 217 213 213 201 189 182 166 163 163 164 165 169 165 158 154 157 157 155
336 338 338 337 333 329 325 321 321 316 307 305 304 306 310 315 321 325 326 328 320 301 269 251 231 226 215 194 184 176 167 167 165 167 163 159 156 153 153 150 146 147 139
335 332 336 336 329 324 327 325 325 320 312 303 299 303 307 308 312 318 318 319 315 293 219 164 151 142 139 143 150 155 160 159 159 157 153 153 154 151 151 150 146 143 146
330 330 329 327 323 327 327 326 323 325 328 317 302 293 294 296 307 315 315 320 309 194 159 139 140 147 148 150 152 153 157 157 158 156 155 154 154 152 150 149 152 151 152
321 326 327 326 327 328 327 327 325 328 329 324 319 308 300 299 306 311 310 296 244 145 85 110 138 146 149 152 152 153 154 156 154 156 156 155 154 155 153 154 156 153 150
321 320 327 323 327 321 321 320 321 323 324 325 318 317 307 307 306 295 271 272 283 93 133 138 130 135 137 144 148 148 147 149 154 155 154 154 153 152 153 155 155 155 152
321 325 328 325 326 324 318 318 319 318 320 319 316 310 312 305 296 274 247 295 286 196 154 146 148 145 148 150 147 147 150 153 153 153 153 152 151 152 152 153 155 157 150
321 322 328 323 322 326 328 324 323 321 315 318 314 307 299 280 244 239 258 281 258 201 172 154 150 154 154 152 147 147 147 147 150 149 149 149 150 153 152 152 155 153 155
319 320 324 324 323 325 326 324 320 317 308 313 313 304 280 253 251 255 258 256 234 201 188 171 163 157 154 154 152 150 150 150 150 148 147 147 148 147 153 152 153 155 156
314 317 322 321 322 323 323 319 318 313 311 307 314 309 286 251 248 247 251 250 231 202 191 176 165 168 167 164 160 154 153 151 150 149 147 147 147 150 153 153 156 158 157
312 316 318 319 321 321 319 316 317 319 314 311 311 304 283 252 244 240 239 239 217 198 183 176 165 158 160 160 160 158 155 155 154 153 150 150 151 154 156 156 159 159 161
309 311 312 314 315 317 314 318 314 315 317 312 306 302 286 270 249 240 236 228 222 205 193 179 173 166 166 167 167 162 160 160 161 161 158 154 155 157 157 159 161 162 160
302 303 304 306 308 308 309 311 314 309 313 316 315 301 288 275 262 240 230 226 221 209 199 192 183 181 178 175 175 171 173 178 177 174 166 161 161 161 161 161 161 160 161
292 293 295 298 299 300 301 303 306 309 309 313 317 312 289 274 261 248 224 215 217 210 203 197 195 190 185 184 185 183 187 185 181 173 167 163 159 160 161 161 163 164 165